Regional Weather Roundup
Issued by NWS

Home | Current Version | Previous Version | Text Only | Print | Product List | Glossary On
Versions: 1 2 3 4 5 6 7 8 9 10 11 12 13 14 15 16 17 18 19 20 21 22 23 24 25 26 27 28 29 30 31 32 33 34 35 36 37 38 39 40 41 42 43 44 45 46 47 48 49 50
000
ASUS44 KJAN 290303
RWRMS

MISSISSIPPI HOURLY WEATHER ROUNDUP
NATIONAL WEATHER SERVICE JACKSON MS
1000 PM CDT THU MAY 28 2015

NOTE: "FAIR: INDICATES FEW OR NO CLOUDS BELOW 12,000 FEET WITH NO
SIGNIFICANT WEATHER AND/OR OBSTRUCTIONS TO VISIBILITY.

MSZ001>002-007>008-010>013-018>021-025>028-034>036-290400-
NORTHWEST MISSISSIPPI

CITY           SKY/WX    TMP DP  RH WIND       PRES   REMARKS
CLARKSDALE       N/A     73  72  94 MISG      30.07R
CLEVELAND      FAIR      74  73  95 S3        30.06S
GREENWOOD      PTCLDY    75  68  78 E5        30.08R
GREENVILLE     PTCLDY    75  72  90 SE6       30.05S
OLIVE BRANCH   CLEAR     72  70  94 SE8       30.08S
OXFORD         FAIR      70  66  88 SE5       30.11S
TUNICA         PTCLDY    73  68  83 E6        30.07R
$$

MSZ003>006-009-014>017-022>024-029>033-037>039-290400-
NORTHEAST MISSISSIPPI

CITY           SKY/WX    TMP DP  RH WIND       PRES   REMARKS
COLUMBUS AFB   PTCLDY    70  70 100 E3        30.11R
CORINTH        FAIR      72  68  88 SE7       30.10S
GOLDN TRIANGLE MOCLDY    73  68  83 SE8       30.10S
STARKVILLE     FAIR      72  70  94 E3        30.11R
TUPELO         CLEAR     74  66  76 SE8       30.11R
$$

MSZ040-058-290400-
CENTRAL MISSISSIPPI

CITY           SKY/WX    TMP DP  RH WIND       PRES   REMARKS
JACKSON INTL   PTCLDY    75  69  81 E5        30.07S
JACKSON HAWKNS PTCLDY    76  69  79 CALM      30.07S
MERIDIAN KEY   PTCLDY    73  69  87 SE6       30.11S
MERIDIAN NAS   MOCLDY    71  69  93 SE7       30.12R
RAYMOND        FAIR      73  68  83 CALM      30.06F
VICKSBURG      CLEAR     77  69  76 NE6       30.04F
$$

MSZ059>079-290400-
SOUTH MISSISSIPPI

CITY           SKY/WX    TMP DP  RH WIND       PRES   REMARKS
BROOKHAVEN     FAIR      72  72 100 CALM      30.08F
HATTIESBURG    MOCLDY    75  71  87 E5        30.12R
MCCOMB         MOCLDY    77  71  82 SE7       30.07R
NATCHEZ        PTCLDY    72  68  88 NE5       30.05S
PINE BELT      MOCLDY    73 N/A N/A SE6       30.12R
$$

MSZ080>082-290400-
COASTAL MISSISSIPPI

CITY           SKY/WX    TMP DP  RH WIND       PRES   REMARKS
BILOXI         CLEAR     79  71  78 SE5       30.10R
PASCAGOULA     PTCLDY    71  70  96 CALM      30.11R
GULFPORT       CLEAR     79  72  79 SE7       30.09R
$$


USA.gov is the U.S. government's official web portal to all federal, state and local government web resources and services.